Weather History for South Lake Tahoe, CA

Change the Weather History Date:

Saturday, December 8, 2012

  Actual Average Record
Temperature  
Mean Temperature 37 °F 30 °F  
Max Temperature 50 °F 44 °F 54 °F (1976)
Min Temperature 24 °F 17 °F -17 °F (2013)
Degree Days  
Heating Degree Days 28 35  
Month to date heating degree days 193 271  
Since 1 July heating degree days 1951 2364  
Cooling Degree Days 0 0  
Month to date cooling degree days 0 0  
Year to date cooling degree days 30 31  
Moisture  
Dew Point 20 °F    
Average Humidity 54    
Maximum Humidity 78    
Minimum Humidity 29    
Precipitation  
Precipitation 0.00 in - 1.33 in (1950)
Month to date precipitation 3.10  
Year to date precipitation 19.23  
Sea Level Pressure  
Sea Level Pressure 30.10 in    
Wind  
Wind Speed 2 mph (SSW)    
Max Wind Speed 9 mph    
Max Gust Speed 14 mph    
Visibility 10 miles    
Events      
T = Trace of Precipitation, MM = Missing Value Source: NWS Daily Summary

Daily Weather History Graph

Daily Weather History Graph

Search for Another Location

Airport:

Trip Planner

Search our weather history database for the weather conditions in past years. The results will help you decide how hot, cold, wet, or windy it might be!

Date:

Astronomy

Dec. 08, 2012 Rise Set
Actual Time 7:06 AM PST 4:37 PM PST
Civil Twilight 6:36 AM PST 5:07 PM PST
Nautical Twilight 6:03 AM PST 5:40 PM PST
Astronomical Twilight 5:31 AM PST 6:13 PM PST
Moon 1:39 AM PST (12/8) 1:08 PM PST (12/8)
Length of Visible Light 10h 30m
Length of Day
9h 31m
Waning Crescent, 27% of the Moon is Illuminated
Dec 8
Waning Crescent
Dec 13
New
Dec 19
First Quarter
Dec 28
Full
Jan 4
Last Quarter

Hourly Weather History & Observations

Time (PST) Temp. Windchill Dew Point Humidity Pressure Visibility Wind Dir Wind Speed Gust Speed Precip Events Conditions
12:53 AM 28.0 °F 22.8 °F 17.1 °F 63% 30.07 in 10.0 mi South 4.6 mph - N/A   Clear
1:53 AM 27.0 °F - 16.0 °F 63% 30.06 in 10.0 mi Calm Calm - N/A   Clear
2:53 AM 26.1 °F - 16.0 °F 66% 30.07 in 10.0 mi Calm Calm - N/A   Clear
3:53 AM 26.1 °F 21.9 °F 16.0 °F 66% 30.09 in 10.0 mi SSW 3.5 mph - N/A   Clear
4:53 AM 25.0 °F 20.7 °F 17.1 °F 72% 30.11 in 10.0 mi South 3.5 mph - N/A   Clear
5:53 AM 26.1 °F 21.9 °F 17.1 °F 69% 30.11 in 10.0 mi SSW 3.5 mph - N/A   Clear
6:53 AM 24.1 °F 19.7 °F 17.1 °F 75% 30.13 in 10.0 mi South 3.5 mph - N/A   Clear
7:53 AM 24.1 °F - 17.1 °F 75% 30.14 in 10.0 mi Calm Calm - N/A   Clear
8:53 AM 32.0 °F - 21.0 °F 64% 30.12 in 10.0 mi Calm Calm - N/A   Clear
9:53 AM 39.0 °F - 24.1 °F 55% 30.12 in 10.0 mi Calm Calm - N/A   Clear
10:53 AM 45.0 °F 43.5 °F 19.0 °F 36% 30.10 in 10.0 mi NE 3.5 mph - N/A   Clear
11:53 AM 46.9 °F - 19.9 °F 34% 30.07 in 10.0 mi Variable 4.6 mph - N/A   Clear
12:53 PM 48.0 °F - 19.0 °F 32% 30.05 in 10.0 mi Variable 4.6 mph - N/A   Clear
1:53 PM 48.0 °F - 18.0 °F 30% 30.03 in 10.0 mi Calm Calm - N/A   Clear
2:53 PM 45.0 °F - 26.1 °F 48% 30.05 in 10.0 mi Calm Calm - N/A   Clear
3:53 PM 39.9 °F - 24.1 °F 53% 30.06 in 10.0 mi Calm Calm - N/A   Clear
5:53 PM 33.1 °F - 25.0 °F 72% 30.12 in 10.0 mi Calm Calm - N/A   Clear
6:53 PM 32.0 °F 27.5 °F 24.1 °F 73% 30.14 in 10.0 mi SSW 4.6 mph - N/A   Clear
7:53 PM 30.0 °F - 23.0 °F 75% 30.15 in 10.0 mi Calm Calm - N/A   Clear
8:53 PM 30.0 °F - 23.0 °F 75% 30.12 in 10.0 mi Calm Calm - N/A   Clear
9:53 PM 28.9 °F - 23.0 °F 78% 30.12 in 10.0 mi Calm Calm - N/A   Clear
10:53 PM 28.9 °F - 23.0 °F 78% 30.12 in 10.0 mi Calm Calm - N/A   Clear
11:53 PM 30.0 °F - 23.0 °F 75% 30.11 in 10.0 mi Calm Calm - N/A   Clear